Regional Weather Roundup
Issued by NWS

Home | Current Version | Previous Version | Graphics & Text | Print | Product List | Glossary Off
Versions: 1 2 3 4 5 6 7 8 9 10 11 12 13 14 15 16 17 18 19 20 21 22 23 24 25 26 27 28 29 30 31 32 33 34 35 36 37 38 39 40 41 42 43 44 45 46 47 48 49 50

000
ASUS43 KMPX 072101
RWRMN
WEATHER ROUNDUP FOR MINNESOTA
NATIONAL WEATHER SERVICE TWIN CITIES/CHANHASSEN MN
400 PM CDT TUE JUL 07 2015


NOTE: "FAIR" INDICATES FEW OR NO CLOUDS BELOW 12,000 FEET WITH NO
SIGNIFICANT WEATHER AND/OR OBSTRUCTIONS TO VISIBILITY. N/A MEANS
CURRENT SKY AND/OR WEATHER CONDITIONS ARE NOT AVAILABLE.

MNZ060>063-068>070-072200-
   Twin Cities Metro

CITY           SKY/WX    TMP DP  RH WIND       PRES   REMARKS
TWIN CITIES    PTSUNNY   69  47  45 VRB6      30.14S
ST PAUL        PTSUNNY   70  47  43 NE5       30.14S
CRYSTAL        MOSUNNY   71  46  40 E8        30.12F
BLAINE         PTSUNNY   72  48  43 NE5       30.14S
LAKEVILLE      PTSUNNY   66  52  59 E6        30.14S
EDEN PRAIRIE   PTSUNNY   70  46  42 NE9       30.13S
SOUTH ST PAUL  PTSUNNY   69  46  43 NE6       30.13F
LAKE ELMO      PTSUNNY   68  48  49 NE6       30.15S
$$
MNZ001>005-007-008-013>017-022>024-027-028-072200-
   Northwest Minnesota

CITY           SKY/WX    TMP DP  RH WIND       PRES   REMARKS
BEMIDJI        SUNNY     70  45  41 E6        30.12S
HALLOCK        SUNNY     72  48  43 SW13      30.07F
ROSEAU         SUNNY     70  50  49 SW10G17   30.09F
WARROAD        SUNNY     70  52  52 SW14      30.09F
THIEF RVR FALL SUNNY     68  45  42 SW10      30.11F
CROOKSTON      SUNNY     72  46  40 S10       30.11F
FOSSTON        SUNNY     70  46  43 CALM      30.13S
DETROIT LAKES  SUNNY     70  36  28 E3        30.15S
MOORHEAD       SUNNY     72  43  35 S5        30.13S
PARK RAPIDS    SUNNY     72  41  32 VRB3      30.13F
MAHNOMEN       FAIR      69  43  38 SW8       30.13S
$$
MNZ006-009>011-018-025>026-072200-
   North Central Minnesota

CITY           SKY/WX    TMP DP  RH WIND       PRES   REMARKS
BAUDETTE       SUNNY     71  46  40 S5        30.08F
FLAG ISLAND    SUNNY     70  54  56 S9G20     30.05S
INTL FALLS     SUNNY     72  40  31 W7        30.09S
WASKISH        SUNNY     70  48  46 SW8       30.11F
BIG FORK       SUNNY     72  46  40 SW5       30.11F
LONGVILLE      SUNNY     70  37  30 SW3       30.13S
GRAND RAPIDS   SUNNY     70  39  32 W8        30.12F
CRANE LAKE     SUNNY     68  39  34 W5        30.11F
COOK           SUNNY     70  43  37 W6        30.11S
WALKER         FAIR      70  45  41 E5        30.12F
$$
MNZ012-019>021-037-072200-
   Northeast Minnesota

CITY           SKY/WX    TMP DP  RH WIND       PRES   REMARKS
DULUTH         MOSUNNY   71  44  37 W7        30.11F
ELY            SUNNY     70  37  30 W7G17     30.10S
HIBBING        MOSUNNY   71  43  36 W7        30.11F
EVELETH        SUNNY     72  41  33 N3        30.12S
DULUTH HARBOR    N/A     73  48  40 E3        30.10F
TWO HARBORS    SUNNY     72  54  53 S10       30.08F
SILVER BAY     SUNNY     68  46  45 S12       30.08S
GRAND MARAIS     N/A     59  48  67 W8        30.08S
G MARAIS ARPRT MOSUNNY   66  39  37 N5        30.10S
$$
MNZ029>031-032-039>041-046>048-054>057-064-072200-
   West Central Minnesota

CITY           SKY/WX    TMP DP  RH WIND       PRES   REMARKS
FERGUS FALLS   SUNNY     70  45  40 SW5       30.13F
WHEATON        SUNNY     68  45  42 S6        30.16S
MORRIS         PTSUNNY   72  48  43 CALM      30.14F
ALEXANDRIA     SUNNY     68  44  42 NW6       30.16F
ELBOW LAKE     FAIR      68  45  42 CALM      30.14F
WADENA         SUNNY     70  41  35 SE6       30.13F
GLENWOOD       SUNNY     70  45  40 SE5       30.16S
APPLETON       SUNNY     72  45  37 CALM      30.15S
BENSON         SUNNY     70  45  40 SE3       30.15F
ORTONVILLE     SUNNY     70  43  37 E3        30.15S
MADISON        SUNNY     68  46  45 SE5       30.16S
WILLMAR        FAIR      70  46  43 SE5       30.17S
$$
MNZ033>034-036-042>043-049>051-058-059-072200-
   Central Minnesota

CITY           SKY/WX    TMP DP  RH WIND       PRES   REMARKS
ST CLOUD       MOSUNNY   70  44  39 CALM      30.14S
SAUK CENTRE    FAIR      67  45  44 N5        30.16S
PAYNESVILLE    MOSUNNY   65  44  47 NW3       30.16S
AITKIN         SUNNY     72  45  37 S6        30.12S
PINE RIVER     SUNNY     70  45  40 CALM      30.16S
BRAINERD       SUNNY     71  44  37 CALM      30.14F
STAPLES        SUNNY     72  39  30 W7        30.13F
LONG PRAIRIE   FAIR      68  43  40 NE5       30.16S
LITTLE FALLS   SUNNY     70  41  35 NE3       30.14S
LITCHFIELD     SUNNY     70  48  46 W6        30.16S
BUFFALO        SUNNY     70  44  38 NE5       30.15F
MAPLE LAKE     PTSUNNY   69  51  51 CALM      30.15F
$$
MNZ037-044-045-052-053-072200-
   East Central Minnesota

CITY           SKY/WX    TMP DP  RH WIND       PRES   REMARKS
PRINCETON      MOSUNNY   72  46  40 MISG      30.15S
MORA           MOSUNNY   70  46  43 CALM      30.15F
CAMBRIDGE      PTSUNNY   70  50  49 CALM      30.12F
RUSH CITY      SUNNY     68  47  47 NW5       30.14S
MOOSE LAKE     SUNNY     68  41  37 CALM      30.11S
HINCKLEY       MOCLDY    70  46  43 CALM      30.13S
CLOQUET        SUNNY     70  39  32 W6        30.12F
MCGREGOR       SUNNY     70  43  37 W6        30.13S
$$
MNZ071>073-080-081-089-090-097-098-072200-
   Southwest Minnesota

CITY           SKY/WX    TMP DP  RH WIND       PRES   REMARKS
MONTEVIDEO     MOSUNNY   72  48  43 CALM      30.17F
GRANITE FALLS  SUNNY     68  46  45 CALM      30.17F
CANBY          MOSUNNY   68  47  46 S3        30.17F
MARSHALL       SUNNY     66  46  48 N3        30.15
REDWOOD FALLS  PTSUNNY   68  48  48 VRB3      30.16F
OLIVIA         MOSUNNY   68  45  42 CALM      30.16S
PIPESTONE      SUNNY     66  46  48 NE8       30.16F
WINDOM         SUNNY     66  48  52 NE8       30.15F
WORTHINGTON    SUNNY     66  48  52 NE13      30.15F
JACKSON        SUNNY     68  50  52 NE12      30.15F
TRACY          SUNNY     68  48  49 CALM      30.16F
SLAYTON        SUNNY     66  46  48 CALM      30.17F
$$
MNZ065>067-074>077-082>085-091>093-072200-
   South Central Minnesota

CITY           SKY/WX    TMP DP  RH WIND       PRES   REMARKS
MANKATO        MOSUNNY   66  46  48 NE7       30.14F
NEW ULM        MOSUNNY   66  46  48 N5        30.15F
ST JAMES         N/A     68  52  56 NE8       30.15F
FAIRMONT       SUNNY     66  46  48 NE5       30.14S
GLENCOE        PTSUNNY   69  49  49 NE5       30.15S
OWATONNA       MOSUNNY   66  46  48 NE5       30.14F
WASECA         PTSUNNY   64  46  52 N8        30.16S
ALBERT LEA     SUNNY     66  48  52 NE10G17   30.13F
$$
MNZ078>079-086>088-094>096-072200-
   Southeast Minnesota

CITY           SKY/WX    TMP DP  RH WIND       PRES   REMARKS
ROCHESTER      MOSUNNY   68  49  50 N8        30.13F
RED WING       MOSUNNY   70  46  43 N7        30.12S
DODGE CENTER   MOSUNNY   66  48  52 N9        30.13F
WINONA         MOSUNNY   70  48  46 N3        30.12S
AUSTIN         SUNNY     68  48  49 NE10      30.12F
PRESTON        SUNNY     64  48  55 N12       30.13F
$$
ABBREVIATIONS USED IN REMARKS
   TC - TEMPERATURES IN CELSIUS
  WCI - WIND CHILL INDEX
   HX - HEAT INDEX
  VSB - VISIBILITY
$$


USA.gov is the U.S. government's official web portal to all federal, state and local government web resources and services.